GSAT0205 (GALILEO 9) (40889 NORAD) Tracking and Keplerian Element Data

This shows tracking and keplerian element data for the satellite.

Feedback or suggestion? Click here.




ElementValue
Catalog40889
NameGSAT0205 (GALILEO 9)
Epoch Orbit5190
Epoch Day12.90685939
Epoch Year2024
RAAN246.0894
Inclination55.2934
Eccentricity0.0005322
Argument of Perigee15.6894
Mean Anonmoly344.4237
Mean Motion1.70473129
Decay Rate6.5E-07
L11 40889U 15045A 24012.90685939 .00000065 00000+0 00000+0 0 9991
L22 40889 55.2934 246.0894 0005322 15.6894 344.4237 1.70473129 51903



Live tracking and technical data element details for GSAT0205 (GALILEO 9) (NORAD 40889). GSAT0205 (GALILEO 9) can be tracked NOW for your location showing map with azimuth and elevation plus other details from your city location.







IsCatalogInMostPopularTable: catalog: 40889, numindb: 886
Update: records affected: 1



GetName: 40889 GSAT0205 (GALILEO 9)

Hit Count: updated at: Fri, 01 Mar 2024 13:23:36 GMT